Grand Forks AFB, ND

6:25 PM CST on January 18, 2018 (GMT -0600)
Grand Forks Air Force Base

Weather History for KRDR - November, 2012

Change the Weather History Date:

Thursday, November 1, 2012

  Actual Average Record
Temperature  
Mean Temperature 30 °F -  
Max Temperature 34 °F 41 °F 62 °F (2000)
Min Temperature 26 °F 25 °F 12 °F (1996)
Degree Days  
Heating Degree Days 35    
Moisture  
Dew Point 22 °F    
Average Humidity 72    
Maximum Humidity 80    
Minimum Humidity 68    
Precipitation  
Precipitation 0.00 in - - ()
Sea Level Pressure  
Sea Level Pressure 30.17 in    
Wind  
Wind Speed 13 mph (NNE)    
Max Wind Speed 17 mph    
Max Gust Speed 25 mph    
Visibility 10 miles    
Events      
Averages and records for this station are not official NWS values.
T = Trace of Precipitation, MM = Missing Value Source: NWS Daily Summary

Daily Weather History Graph

Daily Weather History Graph

Search for Another Location

Airport or City:

Trip Planner

Search our weather history database for the weather conditions in past years. The results will help you decide how hot, cold, wet, or windy it might be!

Date:

Astronomy

Nov. 01, 2012 Rise Set
Actual Time 8:15 AM CDT 6:10 PM CDT
Civil Twilight 7:42 AM CDT 6:42 PM CDT
Nautical Twilight 7:06 AM CDT 7:19 PM CDT
Astronomical Twilight 6:29 AM CDT 7:55 PM CDT
Moon 7:58 PM CDT (11/1) 10:58 AM CDT (11/1)
Length of Visible Light 11h 00m
Length of Day
9h 55m
Waning Gibbous, 93% of the Moon is Illuminated
Nov 1
Waning Gibbous
Nov 6
Last Quarter
Nov 13
New
Nov 20
First Quarter
Nov 28
Full

Hourly Weather History & Observations

Time (CDT) Temp. Windchill Dew Point Humidity Pressure Visibility Wind Dir Wind Speed Gust Speed Precip Events Conditions
12:45 AM 33.8 °F 24.8 °F 26.6 °F 75% 30.14 in 10.0 mi North 12.7 mph - N/A   Overcast
12:55 AM 34.5 °F 24.8 °F 27.1 °F 74% 30.14 in 10.0 mi North 15.0 mph - N/A   Overcast
1:55 AM 32.7 °F 22.5 °F 25.5 °F 75% 30.15 in 10.0 mi NNE 15.0 mph - N/A   Overcast
2:55 AM 31.1 °F 19.7 °F 24.6 °F 77% 30.16 in 10.0 mi North 17.3 mph - N/A   Overcast
3:55 AM 29.7 °F 19.1 °F 23.4 °F 77% 30.16 in 10.0 mi North 13.8 mph 21.9 mph N/A   Overcast
4:55 AM 29.5 °F 18.8 °F 23.0 °F 77% 30.17 in 10.0 mi North 13.8 mph 18.4 mph N/A   Overcast
4:59 AM 30.2 °F 19.8 °F 23.0 °F 75% 30.17 in 10.0 mi North 13.8 mph 18.4 mph N/A   Overcast
5:55 AM 29.7 °F 19.6 °F 21.4 °F 71% 30.18 in 10.0 mi North 12.7 mph - N/A   Overcast
6:55 AM 28.6 °F 17.7 °F 20.8 °F 73% 30.18 in 10.0 mi North 13.8 mph - N/A   Overcast
7:55 AM 27.5 °F 15.4 °F 18.9 °F 70% 30.19 in 10.0 mi North 16.1 mph 23.0 mph N/A   Overcast
8:55 AM 26.8 °F 14.5 °F 18.5 °F 71% 30.20 in 10.0 mi NNE 16.1 mph 25.3 mph N/A   Overcast
9:55 AM 27.3 °F 14.8 °F 18.5 °F 69% 30.20 in 10.0 mi NNE 17.3 mph - N/A   Overcast
10:55 AM 27.7 °F 15.2 °F 18.3 °F 68% 30.21 in 10.0 mi North 17.3 mph 20.7 mph N/A   Overcast
11:55 AM 28.0 °F 17.5 °F 18.7 °F 68% 30.20 in 10.0 mi NNE 12.7 mph 21.9 mph N/A   Overcast
12:55 PM 28.9 °F 18.2 °F 19.8 °F 69% 30.21 in 10.0 mi North 13.8 mph 20.7 mph N/A   Overcast
1:55 PM 28.8 °F 19.0 °F 19.9 °F 70% 30.17 in 10.0 mi NNE 11.5 mph - N/A   Overcast
2:55 PM 29.5 °F 21.1 °F 20.3 °F 69% 30.17 in 10.0 mi North 9.2 mph - N/A   Overcast
3:55 PM 30.2 °F 20.8 °F 20.7 °F 68% 30.17 in 10.0 mi NNE 11.5 mph - N/A   Overcast
4:55 PM 30.4 °F 21.0 °F 21.0 °F 68% 30.16 in 10.0 mi NNE 11.5 mph - N/A   Overcast
5:55 PM 30.4 °F 22.2 °F 21.0 °F 68% 30.16 in 10.0 mi NNE 9.2 mph - N/A   Overcast
6:55 PM 30.2 °F 20.2 °F 21.9 °F 71% 30.17 in 10.0 mi NNE 12.7 mph - N/A   Overcast
7:55 PM 29.8 °F 20.9 °F 21.4 °F 71% 30.17 in 10.0 mi NE 10.4 mph - N/A   Overcast
8:55 PM 29.3 °F 19.6 °F 21.4 °F 72% 30.17 in 10.0 mi NE 11.5 mph - N/A   Overcast
9:55 PM 29.1 °F 20.0 °F 21.9 °F 74% 30.17 in 10.0 mi NE 10.4 mph - N/A   Overcast
10:37 PM 28.4 °F 19.1 °F 23.0 °F 80% 30.16 in 10.0 mi ENE 10.4 mph - N/A   Overcast
10:55 PM 28.4 °F 19.7 °F 22.1 °F 77% 30.16 in 10.0 mi ENE 9.2 mph - N/A   Overcast
11:55 PM 28.2 °F 21.0 °F 21.9 °F 77% 30.18 in 10.0 mi ENE 6.9 mph - N/A   Overcast